#timestamp,LO_Frequency,Hit,StdDev 
1520352015.8,286047002.7,N
1520352065.7,286047000.1,E
1520352075.6,286047001.0,N
1520352095.4,286047001.2,P
1520352115.3,286047001.2,P
1520352135.1,286047000.3,N
1520352155.8,286047000.5,N
1520352175.7,286047000.4,N
1520352195.5,286047002.3,Y
1520352215.4,286046999.9,P
1520352235.2,286047001.9,P
1520352255.0,286047001.3,N
1520352255.9,286047001.3,N
1520352275.8,286047001.1,N
1520352295.6,286047000.8,N
1520352315.5,286046999.9,N
1520352335.3,286047002.4,Y
1520352355.1,286046999.9,P
1520352375.9,286047002.1,P
1520352395.7,286047001.2,N
1520352415.5,286047000.6,N
1520352435.4,286046998.2,N
1520352455.2,286047000.8,N
1520352475.1,286046998.6,N
1520352476.0,286046998.6,N
1520352495.8,286046998.8,N
1520352515.6,286046998.9,N
1520352535.5,286046999.3,N
1520352555.3,286047000.8,N
1520352575.1,286046999.7,N
1520352595.9,286047000.4,N
1520352615.7,286046998.6,N
1520352635.6,286046998.9,N
1520352655.4,286046999.0,N
1520352675.2,286046998.2,N
1520352695.1,286047000.1,N
1520352696.0,286047000.1,N
1520352715.8,286047000.3,N
1520352735.6,286047001.0,N
1520352755.5,286046999.9,N
1520352775.3,286047002.4,N
1520352795.2,286046999.8,N
1520352815.9,286046998.2,N
1520352835.7,286047001.2,N
1520352855.6,286046998.5,N
1520352875.4,286046998.8,N
1520352895.2,286046999.2,N
1520352915.1,286046998.8,N
1520352916.0,286046998.8,N
1520352935.8,286046997.1,N
1520352955.7,286046996.7,N
1520352975.5,286046997.1,N
1520352995.3,286046998.6,N
1520353015.2,286046996.5,N
1520353035.0,286047000.9,N
1520353035.9,286047000.9,N
1520353055.7,286047000.0,N
1520353075.6,286047001.0,N
1520353095.4,286046998.2,N
1520353115.3,286046998.3,N
1520353135.1,286046998.9,N
1520353136.0,286046998.9,N
1520353155.8,286046998.2,N
1520353175.7,286046999.9,N
1520353195.5,286046999.7,N
1520353215.3,286046998.8,N
1520353235.2,286046999.4,N
1520353255.0,286046998.5,N
1520353255.9,286046998.5,N
1520353275.8,286047001.1,N
1520353295.6,286046998.7,N
1520353315.4,286047001.2,N
1520353335.3,286047000.6,N
1520353355.1,286046999.7,N
1520353375.8,286047000.3,N
1520353395.7,286046999.9,N
1520353415.5,286047001.6,N
1520353435.4,286047003.7,N
1520353455.2,286047004.3,N
1520353475.0,286047001.7,N
1520353475.9,286047001.7,N
1520353495.8,286047003.7,N
1520353515.6,286047005.9,Y
1520353535.4,286047003.3,P
1520353555.3,286047005.1,P
1520353575.1,286047006.3,P
1520353595.9,286047004.5,N
1520353615.7,286047005.9,N
1520353635.5,286047005.8,N
1520353655.4,286047005.2,N
1520353675.2,286047006.0,Y
1520353695.0,286046998.4,P
1520353696.0,286046998.4,N
1520353715.8,286047000.7,N
1520353735.6,286046998.8,N
1520353755.5,286046998.8,N
1520353775.3,286046998.9,N
1520353795.1,286046998.7,N
1520353815.9,286046996.7,N
1520353835.7,286046997.5,N
1520353855.6,286046997.1,N
1520353875.4,286046999.1,N
1520353895.2,286046998.6,N
1520353915.1,286046998.5,N
1520353916.0,286046998.5,N
1520353935.8,286047000.6,N
1520353955.6,286047001.8,N
1520353975.5,286047002.8,N
1520353995.3,286047002.5,N
1520354015.2,286047003.9,N
1520354035.9,286047004.1,N
1520354055.7,286047001.4,N
1520354075.6,286047004.0,N
1520354095.4,286047003.4,N
1520354115.2,286047005.9,N
1520354135.1,286047005.4,N
1520354136.0,286047005.4,N
1520354155.8,286047003.6,N
1520354175.7,286047002.6,N
1520354195.5,286047001.9,N
1520354215.3,286047002.1,N
1520354235.2,286047003.9,N
1520354255.9,286047004.4,N
1520354275.7,286047001.5,N
1520354295.6,286047002.2,N
1520354315.4,286047000.2,N
1520354335.3,286047003.7,N
1520354355.1,286047001.3,N
1520354356.0,286047001.3,N
1520354375.8,286047003.8,N
1520354395.7,286047006.0,N
1520354415.5,286047002.9,N
1520354435.3,286047005.9,N
1520354455.2,286047005.5,N
1520354475.0,286047005.7,Y
1520354475.9,286047005.7,P
1520354495.8,286047002.5,N
1520354515.6,286047002.6,N
1520354535.4,286047002.1,N
1520354555.3,286047002.5,N
1520354575.1,286047001.9,N
1520354595.8,286047002.1,N
1520354615.7,286047000.1,N
1520354635.5,286047001.5,N
1520354655.4,286047006.0,Y
1520354675.2,286047000.1,P
1520354695.0,286047001.0,N
1520354695.9,286047001.0,N
1520354715.8,286047000.5,N
1520354735.6,286046998.5,N
1520354755.5,286047000.9,N
1520354775.3,286047002.4,N
1520354795.1,286046999.0,N
1520354815.9,286046996.8,N
1520354835.7,286046997.0,N
1520354855.5,286046996.6,N
1520354875.4,286046996.8,N
1520354895.2,286046995.2,N
1520354915.1,286046995.1,N
1520354916.0,286046995.1,N
1520354935.8,286046995.5,N
1520354955.6,286046999.5,N
1520354975.5,286046996.9,N
1520354995.3,286046998.8,N
1520355015.1,286046998.8,N
1520355035.9,286047001.2,N
1520355055.7,286046998.1,N
1520355075.6,286046999.3,N
1520355095.4,286046998.1,N
1520355115.2,286047000.9,N
1520355135.1,286046998.6,N
1520355136.0,286046998.6,N
1520355155.8,286046998.4,N
1520355175.7,286046999.0,N
1520355195.5,286046999.5,N
1520355215.3,286046995.0,N
1520355235.2,286046999.4,N
1520355255.0,286047001.8,N
1520355255.9,286047001.8,N
1520355275.8,286047005.8,N
1520355295.6,286047005.2,N
1520355315.4,286047004.6,N
1520355335.3,286047005.7,N
1520355355.1,286047005.5,N
1520355375.8,286047007.1,N
1520355395.7,286047008.4,N
1520355415.5,286047007.7,N
1520355435.4,286047010.3,N
1520355455.2,286047010.1,N
1520355475.0,286047009.8,N
1520355475.9,286047009.8,N
1520355495.8,286047013.7,Y
1520355515.6,286047012.1,P
1520355535.4,286047009.5,N
1520355555.3,286047012.1,N
1520355575.1,286047011.9,Y
1520355595.9,286047002.1,P
